Regional Weather Roundup
Issued by NWS

Home | Current Version | Previous Version | Text Only | Print | Product List | Glossary On
Versions: 1 2 3 4 5 6 7 8 9 10 11 12 13 14 15 16 17 18 19 20 21 22 23 24 25 26 27 28 29 30 31 32 33 34 35 36 37 38 39 40 41 42 43 44 45 46 47 48 49 50
000
ASHW40 PHFO 231812
RWRHI

WEATHER ROUNDUP FOR HAWAII
NATIONAL WEATHER SERVICE HONOLULU HI
800 AM HST FRI JUN 23 2017

THIS IS AN AUTOMATED REPORT THAT HAS NOT BEEN QUALITY CONTROLLED.

NOTE..."FAIR" INDICATES FEW OR NO CLOUDS BELOW 12,000 FEET WITH NO
SIGNIFICANT WEATHER AND/OR OBSTRUCTIONS TO VISIBILITY.

* - THESE SITES REPORT LIMITED FIELDS

HIZ001>004-231900-
KAUAI-NIIHAU-

CITY           SKY/WX    TMP DP  RH WIND       PRES   REMARKS
LIHUE APT      PTSUNNY   76  71  85 N10       30.00R
PORT ALLEN*    NOT AVBL
POIPU*           N/A     79 N/A N/A NE5G12      N/A
PRINCEVILLE*     N/A     73 N/A N/A S1G8        N/A
KOKOLE POINT*  NOT AVBL
MOLOAA DAIRY*    N/A     73  72  94 CALM        N/A
WAIMEA HTS*    NOT AVBL
PUU OPAE*      NOT AVBL
PUU LUA*       NOT AVBL
MAKAHA RIDGE*  NOT AVBL
$$

HIZ005>011-231900-
OAHU-

CITY           SKY/WX    TMP DP  RH WIND       PRES   REMARKS
HONOLULU       PTSUNNY   76  66  71 NE9       29.96R
KALAELOA       PTSUNNY   79  66  64 NE3       29.98R
KANEOHE MCB    PTSUNNY   80  73  79 E8        29.94R
WHEELER FIELD  FAIR      75  67  76 CALM      29.97R
BELLOWS*       NOT AVBL
KAHUKU*        NOT AVBL
WHEELER*       NOT AVBL
WAIANAE HARBOR NOT AVBL
DILLINGHAM*      N/A     66  57  72 SW3         N/A
KAHUKU TRN*      N/A    N/A N/A N/A W8G15       N/A
KAWAILOA*        N/A     72  66  83 NE8G14      N/A
KII*             N/A     79  70  73 E12         N/A
MAKUA RANGE*     N/A     70  57  64 W6G13       N/A
OAHU FOREST NW NOT AVBL
SCHOFIELD BRK* NOT AVBL
SCHOFIELD S*   NOT AVBL
WAIANAE VLY*   NOT AVBL
KUAOKALA*      NOT AVBL
HONOULIUULI*   NOT AVBL
MOKUOLOE IS*   NOT AVBL
PALEHUA*       NOT AVBL
WAIAWA PHB*    NOT AVBL
$$

HIZ012>013-231900-
MOLOKAI-

CITY           SKY/WX    TMP DP  RH WIND       PRES   REMARKS
MOLOKAI AIRPT  RAIN      76  70  82 NE12      29.98R
KALAUPAPA      NOT AVBL
MAKAPULAPAI*   NOT AVBL
MOLOKAI 1*     NOT AVBL
PUU ALII*      NOT AVBL
$$

HIZ016-231900-
KAHOOLAWE-

CITY           SKY/WX    TMP DP  RH WIND       PRES   REMARKS
KAHOOLAWE*     NOT AVBL
HAKIOAWA*      NOT AVBL
HONOKANAIA*      N/A     78  65  64 NE10G20   29.88R
KANELOA*         N/A     73  68  83 NE12G18   30.01R
KEALIALALO*    NOT AVBL
LUA MAKIKA*    NOT AVBL
$$

HIZ014>015-231900-
LANAI-

CITY           SKY/WX    TMP DP  RH WIND       PRES   REMARKS
LANAI CITY     FAIR      73  66  78 VRB3      30.02R
LANAI 1*       NOT AVBL
$$

HIZ017>028-231900-
MAUI-

CITY           SKY/WX    TMP DP  RH WIND       PRES   REMARKS
KAHULUI        MOSUNNY   79  67  66 NE15      29.95R
KAPALUA-W MAUI MOSUNNY   81  63  54 NE8       29.97
HANA AIRPORT   NOT AVBL
HANA*            N/A     72 N/A N/A S5G10       N/A
HALEAKALA SUMM   N/A     52  34  50 NE6G29      N/A
MAALAEA BAY*   NOT AVBL
HALEAKALA*     NOT AVBL
KAUPO GAP*     NOT AVBL
KULA 1*          N/A     53  49  87 NE3         N/A
$$

HIZ023>026-231900-
BIG ISLAND OF HAWAII COAST AND LOWER SLOPES-

CITY           SKY/WX    TMP DP  RH WIND       PRES   REMARKS
KAILUA KONA    SUNNY     80  66  62 CALM      29.93R
HILO           CLOUDY    72  69  90 W9        29.98R
HONOKAA*         N/A     68 N/A N/A VRB1        N/A
KAWAIHAE MWT*    N/A     82 N/A N/A N3          N/A
KAWAIHAE*      NOT AVBL
SOUTH POINT*     N/A     73 N/A N/A N13         N/A
UPOLU AIRPORT* NOT AVBL
KAMUELA*       MOCLDY    70  63  78 NE15      30.05S
HAKALAU*         N/A     55  54  95 E3          N/A
KALOKO-HONOKO* NOT AVBL
PALI 2*          N/A    N/A N/A N/A W3          N/A
KEALAKOMO*       N/A     79  64  61 NE9G16      N/A
KAUPULEHU*     NOT AVBL
KAPAPALA*        N/A     71  67  86 SW2         N/A
LOWER KAHUKU*  NOT AVBL
PUHE CS*       NOT AVBL
PUHO CS*       NOT AVBL
PTA KEAMUKU*   NOT AVBL
WAIKOLOA*      NOT AVBL
$$

HIZ027>028-231900-
BIG ISLAND OF HAWAII INTERIOR AND SUMMMITS-

CITY           SKY/WX    TMP DP  RH WIND       PRES   REMARKS
BRADSHAW FIELD SUNNY     59  49  69 CALM      30.27R
MK VISITOR CEN   N/A     54  36  50 S3          N/A
MAUNA KEA*       N/A     48  -6  10 NE8         N/A
MAUNA LOA*       N/A    N/A N/A N/A MISG        N/A
MAUNA LOA 1*   NOT AVBL
PTA KIPUKA*      N/A     48  39  71 SW3         N/A
PTA RANGE 17*    N/A     52  41  66 E5G10       N/A
PTA WEST*        N/A     70  50  49 NE5G13      N/A
NENE CABIN*    NOT AVBL
AHUMOA*        NOT AVBL
PTA PORTABLE*  NOT AVBL
PUU MALI*        N/A     59  52  77 NW3G10      N/A
$$

HIC003-231900-
NORTHWEST ISLANDS-

CITY           SKY/WX    TMP DP  RH WIND       PRES   REMARKS
MIDWAY ISLAND  SUNNY     73  66  78 E9        30.10S
MIDWAY NOS*    NOT AVBL
FRENCH FRIGATE NOT AVBL
$$

PHZ110>124-180-231900-
BUOY REPORTS

STATION/POSITION TIME  TEMP    WIND        PRES    WAVE   SWELL
                       AIR SEA DIR/SP/G            HT/PER HT/DIR
                 (UTC) (F)     (DEG/KT/KT) (MB)    (FT/S) (FT/D)
BUOY 51001       1750   79 80   80/ 14/ 16 1016.3R   6/ 8   5/ 80
BUOY 51101       1750   79 80   80/ 14/ 16 1016.6R   5/ 8   5
BUOY 51100       NOT AVBL
BUOY 51002       1750   78 79   70/ 12/ 14 1013.3R   6/15   5/150
BUOY 51003       1750   79 81   50/  8/ 10 1013.6R   5/15   5/130
BUOY 51004       1650      79  100/ 10/ 12 1013.6    6/15   5/160
BARBERS PT BUOY  NOT AVBL
WAIMEA BAY BUOY  1702      78                N/A     3/ 8   2/300
KAILUA BAY BUOY  1734      80                N/A     5/ 8   2/120
LANAI BUOY       NOT AVBL
BARBERS PT 2     NOT AVBL
PAUWELA MAUI     1739      79                N/A     5/ 8   2/ 90
HILO             1757      78                N/A     5/ 8   2/120
KANEOHE BAY BUOY 1755      80                N/A     4/ 8
HANALEI KAUAI    1752      80                N/A     4/ 8   2/ 90
KAHULUI HARBOR   1742   76 80  350/ 10/ 12 1014.5R
HONOLULU HARBOR  1742   76 80  210/  2/  2 1015.3R
KILO NALU        NOT AVBL
HILO HARBOR      1742   72 76  270/  8/ 12 1014.8R
MOKUOLOE         1736   79 81   80/  3/  4 1014.9R
NAWILIWILI       1748   76      10/  8/ 11 1015.2R
WHOTS BUOY       NOT AVBL
BUOY 51028       NOT AVBL
$$

......................KEY........................................
  SKY/WX - SKY CONDITIONS/PRESENT WEATHER
  TMP    - TEMPERATURE IN FAHRENHEIT
  DWPT   - DEWPOINT IN FAHRENHEIT
  RH     - RELATIVE HUMIDITY IN PERCENT
  WIND   - DIRECTION AND SPEED /MPH FOR ISLANDS...KTS FOR BUOYS/
  PRES   - MEAN SEA LEVEL PRESSURE IN INCHES OF HG
  VSB    - VISIBILITY IN MILES
  HX     - HEAT INDEX
  WCI    - WIND CHILL INDEX
  VRB    - VARIABLE WIND DIRECTION
  N/A    - NOT AVAILABLE




USA.gov is the U.S. government's official web portal to all federal, state and local government web resources and services.